Location: Zagreb
(45.8000°N, 16.0000°E)
Time: 16:53:35
(UTC+01:00)

Tiros 1 despin weight - Pass Details

Date: 05 December 2023
Orbit: 581 x 624 km, 48.2° (Epoch: 02 March)

Event Time Altitude Azimuth Distance (km) Brightness Sun altitude
Rises 18:22:36 0° 239° (WSW) 2,799 ? -22.0°
Reaches altitude 10° 18:24:54 10° 236° (WSW) 1,897 ? -22.4°
Enters shadow 18:29:08 65° 160° (SSE) 639 ? -23.1°
